• In Latvia
  • List of Countries
  • For 7 days
  • Water Temperature
  • Satellite Maps
  • Weather Map
  • Weather Widgets
  • user-avatar
    Login

    Hourly Weather Varberg

    Today, 22 September, Saturday

    Time Temperature Precipitation Wind Pressure Humidity
    00:00 +9°C° 0.6 mm 12 mps 746 mmHg 80%
    01:00 +9°C° 0 mm 10 mps 746 mmHg 85%
    02:00 +9°C° 0.4 mm 11 mps 747 mmHg 82%
    03:00 +9°C° 0.4 mm 12 mps 748 mmHg 80%
    04:00 +9°C° 0.4 mm 13 mps 748 mmHg 78%
    05:00 +9°C° 0.1 mm 12 mps 749 mmHg 76%
    06:00 +9°C° 0.1 mm 12 mps 750 mmHg 74%
    07:00 +9°C° 0.1 mm 12 mps 751 mmHg 72%
    08:00 +11°C° 0.2 mm 11 mps 751 mmHg 68%
    09:00 +12°C° 0.2 mm 11 mps 752 mmHg 65%
    10:00 +12°C° 0.2 mm 11 mps 752 mmHg 62%
    11:00 +12°C° 0.3 mm 10 mps 752 mmHg 62%
    12:00 +12°C° 0.3 mm 10 mps 752 mmHg 62%
    13:00 +12°C° 0.3 mm 10 mps 752 mmHg 63%
    14:00 +12°C° 0.3 mm 10 mps 753 mmHg 63%
    15:00 +12°C° 0.3 mm 10 mps 753 mmHg 63%
    16:00 +11°C° 0.3 mm 10 mps 753 mmHg 63%
    17:00 +9°C° 0.3 mm 10 mps 752 mmHg 68%
    18:00 +9°C° 0.3 mm 10 mps 752 mmHg 73%
    19:00 +8°C° 0.3 mm 10 mps 752 mmHg 78%
    20:00 +8°C° 0.4 mm 10 mps 752 mmHg 81%
    21:00 +8°C° 0.4 mm 10 mps 752 mmHg 83%
    22:00 +8°C° 0.4 mm 10 mps 752 mmHg 85%
    23:00 +8°C° 0.3 mm 10 mps 752 mmHg 85%

    Tomorrow, 23 September, Sunday

    Time Temperature Precipitation Wind Pressure Humidity
    00:00 +8°C° 0.3 mm 10 mps 752 mmHg 85%
    01:00 +8°C° 0.3 mm 10 mps 752 mmHg 85%
    02:00 +8°C° 0.1 mm 10 mps 752 mmHg 84%
    03:00 +8°C° 0.1 mm 10 mps 752 mmHg 83%
    04:00 +8°C° 0.1 mm 10 mps 752 mmHg 83%
    05:00 +8°C° 0.1 mm 10 mps 752 mmHg 82%
    06:00 +8°C° 0.1 mm 9 mps 753 mmHg 81%
    07:00 +8°C° 0.1 mm 9 mps 753 mmHg 80%
    08:00 +10°C° 0.1 mm 9 mps 753 mmHg 73%
    09:00 +11°C° 0.1 mm 9 mps 753 mmHg 66%
    10:00 +12°C° 0.1 mm 8 mps 754 mmHg 59%
    11:00 +12°C° 0 mm 8 mps 754 mmHg 57%
    12:00 +13°C° 0 mm 8 mps 754 mmHg 54%
    13:00 +13°C° 0 mm 8 mps 754 mmHg 52%
    14:00 +13°C° 0 mm 8 mps 754 mmHg 53%
    15:00 +12°C° 0 mm 7 mps 754 mmHg 55%
    16:00 +12°C° 0 mm 7 mps 753 mmHg 56%
    17:00 +11°C° 0 mm 7 mps 753 mmHg 61%
    18:00 +10°C° 0 mm 7 mps 754 mmHg 66%
    19:00 +8°C° 0 mm 6 mps 754 mmHg 71%
    20:00 +8°C° 0 mm 6 mps 754 mmHg 71%
    21:00 +8°C° 0 mm 6 mps 754 mmHg 72%
    22:00 +7°C° 0 mm 6 mps 755 mmHg 73%
    23:00 +7°C° 0.2 mm 6 mps 755 mmHg 77%

    Day after tomorrow, 24 September, Monday

    Time Temperature Precipitation Wind Pressure Humidity
    00:00 +6°C° 0.2 mm 5 mps 756 mmHg 80%
    01:00 +6°C° 0.2 mm 5 mps 756 mmHg 84%
    02:00 +5°C° 0.3 mm 5 mps 757 mmHg 85%
    03:00 +5°C° 0.3 mm 4 mps 758 mmHg 86%
    04:00 +5°C° 0.3 mm 4 mps 758 mmHg 87%
    05:00 +5°C° 0.4 mm 3 mps 759 mmHg 85%
    06:00 +5°C° 0.4 mm 3 mps 760 mmHg 82%
    07:00 +5°C° 0.4 mm 3 mps 761 mmHg 79%
    08:00 +7°C° 0.3 mm 3 mps 762 mmHg 70%
    09:00 +9°C° 0.3 mm 3 mps 762 mmHg 61%
    10:00 +10°C° 0.3 mm 4 mps 763 mmHg 51%
    11:00 +11°C° 0.1 mm 4 mps 764 mmHg 48%
    12:00 +11°C° 0.1 mm 4 mps 765 mmHg 44%
    13:00 +12°C° 0.1 mm 4 mps 765 mmHg 41%
    14:00 +12°C° 0.1 mm 5 mps 766 mmHg 43%
    15:00 +12°C° 0.1 mm 5 mps 766 mmHg 45%
    16:00 +10°C° 0.1 mm 6 mps 767 mmHg 48%
    17:00 +9°C° 0 mm 6 mps 767 mmHg 52%
    18:00 +8°C° 0 mm 5 mps 768 mmHg 57%
    19:00 +6°C° 0 mm 5 mps 769 mmHg 61%
    20:00 +6°C° 0 mm 5 mps 769 mmHg 61%
    21:00 +5°C° 0 mm 4 mps 770 mmHg 61%
    22:00 +5°C° 0 mm 4 mps 770 mmHg 60%
    23:00 +5°C° 0 mm 4 mps 771 mmHg 61%

    25 September, Tuesday

    Time Temperature Precipitation Wind Pressure Humidity
    00:00 +5°C° 0 mm 4 mps 771 mmHg 61%
    01:00 +6°C° 0 mm 5 mps 772 mmHg 62%
    02:00 +6°C° 0 mm 5 mps 772 mmHg 64%
    03:00 +6°C° 0 mm 5 mps 772 mmHg 65%
    04:00 +5°C° 0 mm 6 mps 772 mmHg 67%
    05:00 +5°C° 0 mm 6 mps 772 mmHg 68%
    06:00 +5°C° 0 mm 6 mps 773 mmHg 69%
    07:00 +7°C° 0 mm 6 mps 773 mmHg 69%
    08:00 +8°C° 0 mm 7 mps 773 mmHg 66%
    09:00 +10°C° 0 mm 7 mps 773 mmHg 63%
    10:00 +12°C° 0 mm 7 mps 773 mmHg 59%
    11:00 +12°C° 0 mm 7 mps 773 mmHg 59%
    12:00 +13°C° 0 mm 8 mps 773 mmHg 60%
    13:00 +13°C° 0 mm 8 mps 772 mmHg 60%
    14:00 +13°C° 0.1 mm 8 mps 772 mmHg 63%
    15:00 +13°C° 0.1 mm 8 mps 772 mmHg 67%
    16:00 +12°C° 0.1 mm 8 mps 772 mmHg 71%
    17:00 +12°C° 0.1 mm 8 mps 771 mmHg 74%
    18:00 +11°C° 0.1 mm 8 mps 771 mmHg 77%
    19:00 +10°C° 0.1 mm 8 mps 771 mmHg 80%
    20:00 +10°C° 0.1 mm 8 mps 771 mmHg 80%
    21:00 +10°C° 0.1 mm 8 mps 771 mmHg 81%
    22:00 +10°C° 0.1 mm 8 mps 770 mmHg 81%
    23:00 +10°C° 0.1 mm 8 mps 770 mmHg 80%

    26 September, Wednesday

    Time Temperature Precipitation Wind Pressure Humidity
    00:00 +10°C° 0.1 mm 9 mps 769 mmHg 79%
    01:00 +10°C° 0.1 mm 9 mps 769 mmHg 78%
    02:00 +11°C° 0.2 mm 10 mps 768 mmHg 79%
    03:00 +11°C° 0.2 mm 10 mps 767 mmHg 79%
    04:00 +11°C° 0.2 mm 11 mps 766 mmHg 79%
    05:00 +11°C° 0.3 mm 11 mps 766 mmHg 80%
    06:00 +11°C° 0.3 mm 11 mps 765 mmHg 81%
    07:00 +11°C° 0.3 mm 11 mps 764 mmHg 83%
    08:00 +10°C° 1.1 mm 12 mps 763 mmHg 84%
    09:00 +10°C° 1.1 mm 12 mps 763 mmHg 85%
    10:00 +10°C° 1.1 mm 12 mps 762 mmHg 86%
    11:00 +12°C° 0.9 mm 12 mps 762 mmHg 87%
    12:00 +12°C° 0.9 mm 12 mps 761 mmHg 87%
    13:00 +13°C° 0.9 mm 12 mps 761 mmHg 88%
    14:00 +13°C° 0.1 mm 12 mps 760 mmHg 88%
    15:00 +13°C° 0.1 mm 11 mps 760 mmHg 89%
    16:00 +14°C° 0.1 mm 11 mps 759 mmHg 89%
    17:00 +14°C° 0.2 mm 11 mps 759 mmHg 90%
    18:00 +14°C° 0.2 mm 10 mps 759 mmHg 90%
    19:00 +14°C° 0.2 mm 10 mps 759 mmHg 91%
    20:00 +14°C° 0.5 mm 10 mps 759 mmHg 91%
    21:00 +15°C° 0.5 mm 9 mps 759 mmHg 92%
    22:00 +15°C° 0.5 mm 9 mps 759 mmHg 92%
    23:00 +13°C° 0.9 mm 9 mps 758 mmHg 93%

    27 September, Thursday

    Time Temperature Precipitation Wind Pressure Humidity
    00:00 +13°C° 0.9 mm 8 mps 758 mmHg 93%
    01:00 +13°C° 0.9 mm 8 mps 758 mmHg 93%
    02:00 +13°C° 0.7 mm 8 mps 757 mmHg 92%
    03:00 +12°C° 0.7 mm 7 mps 757 mmHg 91%
    04:00 +12°C° 0.7 mm 7 mps 756 mmHg 91%
    05:00 +12°C° 0.6 mm 7 mps 756 mmHg 90%
    06:00 +11°C° 0.6 mm 8 mps 756 mmHg 90%
    07:00 +11°C° 0.6 mm 8 mps 756 mmHg 89%
    08:00 +10°C° 0.9 mm 8 mps 756 mmHg 89%
    09:00 +10°C° 0.9 mm 8 mps 755 mmHg 89%
    10:00 +9°C° 0.9 mm 8 mps 755 mmHg 88%
    11:00 +10°C° 0.4 mm 8 mps 755 mmHg 85%
    12:00 +10°C° 0.4 mm 9 mps 755 mmHg 83%
    13:00 +10°C° 0.4 mm 9 mps 755 mmHg 80%
    14:00 +9°C° 0.1 mm 10 mps 755 mmHg 76%
    15:00 +11°C° 0.1 mm 10 mps 755 mmHg 72%
    16:00 +11°C° 0.1 mm 10 mps 755 mmHg 69%
    17:00 +9°C° 0 mm 10 mps 756 mmHg 66%
    18:00 +9°C° 0 mm 10 mps 756 mmHg 64%
    19:00 +8°C° 0 mm 10 mps 756 mmHg 61%
    20:00 +8°C° 0 mm 10 mps 757 mmHg 61%
    21:00 +7°C° 0 mm 10 mps 758 mmHg 62%
    22:00 +7°C° 0 mm 10 mps 758 mmHg 62%
    23:00 +7°C° 0 mm 10 mps 758 mmHg 63%
    Show more